Regional Weather Roundup
Issued by NWS Jackson, KY

Home | Current Version | Previous Version | Graphics & Text | Print | Product List | Glossary On
Versions: 1 2 3 4 5 6 7 8 9 10 11 12 13 14 15 16 17 18 19 20 21 22 23 24 25 26 27 28 29 30 31 32 33 34 35 36 37 38 39 40 41 42 43 44 45 46 47 48 49 50
000
ASUS43 KJKL 291010
RWRJKL

EAST KENTUCKY HOURLY WEATHER ROUNDUP
NATIONAL WEATHER SERVICE JACKSON KY
600 AM EDT SUN MAY 29 2016

NOTE: "FAIR" INDICATES FEW OR NO CLOUDS BELOW 12,000 FEET WITH
NO SIGNIFICANT WEATHER AND/OR OBSTRUCTIONS TO VISIBILITY.

* THESE REPORTS ARE NOT UNDER NWS QUALITY CONTROL AND MAY NOT
  REPORT WEATHER SUCH AS PRECIPITATION AND FOG.

KYZ079-080-083-085-087-088-110-112-115-119-120-291100
...EASTERN KENTUCKY...

CITY           SKY/WX    TMP DP  RH WIND       PRES   REMARKS
JACKSON        PTCLDY    68  61  78 CALM      30.15R
LONDON         CLOUDY    65  62  90 CALM      30.14R
SOMERSET*      PTCLDY    63  63 100 CALM      30.14S
MONTICELLO*    CLOUDY    64  63  96 VRB7      30.14S
WILLIAMSBURG*  CLOUDY    61  61 100 CALM      30.15R
MIDDLESBORO*   CLOUDY    63  63  99 CALM      30.16R
HARLAN APT*    CLOUDY   N/A N/A N/A CALM      30.16S
HAZARD APT*    SUNNY     66  66 100 CALM      30.15R FOG
BLACK MTN*       N/A     64  55  72 S2          N/A
PIKE CO APT*     N/A     65  65 100 CALM      30.14S FOG
BIG SANDY APT*   N/A     66  66 100 CALM      30.14R FOG
MOREHEAD APT*  CLOUDY    68  64  88 CALM      30.14S
ASHLAND*       CLOUDY    64  63  94 CALM      30.09S
$$

KYZ035-036-041-042-044-050-067-078-099-291100
...CENTRAL KENTUCKY...

CITY           SKY/WX    TMP DP  RH WIND       PRES   REMARKS
MT STERLING*   CLOUDY    64  64 100 CALM      30.14S
FLEMING/MASON* PTCLDY   N/A N/A N/A S3        30.13S
DANVILLE*      CLOUDY    64  63  94 CALM      30.13S
RICHMOND*      CLOUDY    66  63  88 SE3       30.12S
LEXINGTON      MOCLDY    69  62  78 SE3       30.12R
FRANKFORT      CLOUDY    67  62  84 CALM      30.09S
LOUISVILLE     CLOUDY    67  64  90 SE3       30.08R
LEBANON*         N/A     68  63  83 S6        30.11S
GLASGOW*       CLEAR     64  64 100 CALM      30.10S
BOWLING GREEN  MOCLDY    63  62  97 E3        30.09R FOG
$$

KYZ091>093-OHZ055-061-077-WVZ005-015-034-035-042-291100
...SOUTHERN OHIO/WEST VIRGINIA...

CITY           SKY/WX    TMP DP  RH WIND       PRES   REMARKS
COVINGTON      CLOUDY    68  63  84 S5        30.10R
COLUMBUS       CLOUDY    67  65  93 CALM      30.10R
DAYTON         CLOUDY    69  62  78 SW7       30.11R
WILMINGTON     CLOUDY    66  62  87 S3        30.11R
HUNTINGTON       N/A     67  65  93 CALM      30.11S FOG
CHARLESTON     MOCLDY    64  62  93 CALM      30.12R
PINEVILLE*       N/A     61  58  88 MISG      30.22S
BECKLEY          N/A     64  56  75 CALM      30.20R
BLUEFIELD      MOCLDY    62  54  74 CALM      30.21S
LOGAN CO APT*    N/A     68  59  73 CALM      30.14F
$$

VAZ002-007-008-TNZ017-027-036-066-071-291100
...SOUTHWEST VIRGINIA/EAST TENNESSEE...

CITY           SKY/WX    TMP DP  RH WIND       PRES   REMARKS
WISE*            N/A     63  52  67 CALM      30.21S
JONESVILLE*      N/A     63  63 100 CALM      30.17R
ABINGDON*      CLOUDY    66  58  76 E8        30.18R
BRISTOL        CLOUDY    65  59  81 CALM      30.15S
SEVIERVILLE*   CLOUDY    64  61  88 CALM      30.12S
KNOXVILLE      CLOUDY    71  63  75 CALM      30.12R
OAK RIDGE      CLOUDY    68  64  87 CALM      30.14R
CROSSVILLE     PTCLDY    63  59  87 CALM      30.16S
NASHVILLE      PTCLDY    65  62  90 CALM      30.10R
$$

...KEY TO REMARKS...
VSB - VISIBILITY IN MILES
WCI - WIND CHILL INDEX
HX  - HEAT INDEX

$$



USA.gov is the U.S. government's official web portal to all federal, state and local government web resources and services.